Campo, CA

5:48 AM PDT on September 19, 2019 (GMT -0700)
Campo

Weather History for KCZZ - May, 2019

Change the Weather History Date:

Sunday, May 12, 2019

  Actual Average Record
Temperature  
Mean Temperature 64 °F 60 °F  
Max Temperature 78 °F 79 °F 94 °F (1988)
Min Temperature 50 °F 42 °F 27 °F (1963)
Degree Days  
Heating Degree Days 1 5  
Month to date heating degree days 108 75  
Since 1 July heating degree days 2826 2843  
Cooling Degree Days 0 1  
Month to date cooling degree days 0 7  
Year to date cooling degree days 2 10  
Growing Degree Days 14 (Base 50)    
Moisture  
Dew Point 51 °F    
Average Humidity 66    
Maximum Humidity 93    
Minimum Humidity 38    
Precipitation  
Precipitation 0.00 in 0.01 in 0.68 in (1957)
Month to date precipitation 0.52 0.12  
Year to date precipitation 11.71 9.98  
Sea Level Pressure  
Sea Level Pressure 29.87 in    
Wind  
Wind Speed 6 mph (West)    
Max Wind Speed 17 mph    
Max Gust Speed 25 mph    
T = Trace of Precipitation, MM = Missing Value Source: NWS Daily Summary

Daily Weather History Graph

Daily Weather History Graph

Search for Another Location

Airport or City:

Astronomy

May. 12, 2019 Rise Set
Actual Time 5:49 AM PDT 7:35 PM PDT
Civil Twilight 5:22 AM PDT 8:02 PM PDT
Nautical Twilight 4:50 AM PDT 8:34 PM PDT
Astronomical Twilight 4:16 AM PDT 9:09 PM PDT
Moon 1:10 PM PDT (5/12) 2:03 AM PDT (5/12)
Length of Visible Light 14h 39m
Length of Day
13h 45m
First Quarter, 59% of the Moon is Illuminated
May 12
First Quarter
May 18
Full
May 26
Last Quarter
Jun 3
New
Jun 9
First Quarter

Hourly Weather History & Observations

Time (PDT) Temp. Dew Point Humidity Pressure Visibility Wind Dir Wind Speed Gust Speed Precip Events Conditions
12:52 AM 55.0 °F 51.1 °F 86% 29.85 in - Calm Calm - N/A   Unknown
1:52 AM 54.0 °F 51.1 °F 90% 29.84 in - NW 3.5 mph - N/A   Unknown
2:52 AM 53.1 °F 48.9 °F 86% 29.84 in - North 4.6 mph - N/A   Unknown
3:52 AM 53.1 °F 48.9 °F 86% 29.84 in - Calm Calm - N/A   Unknown
4:52 AM 52.0 °F 48.9 °F 89% 29.86 in - Calm Calm - N/A   Unknown
5:52 AM 52.0 °F 48.9 °F 89% 29.87 in - NNE 5.8 mph - N/A   Unknown
6:52 AM 51.1 °F 48.0 °F 89% 29.88 in - North 3.5 mph - N/A   Unknown
7:52 AM 53.1 °F 48.9 °F 86% 29.88 in - Calm Calm - N/A   Unknown
8:52 AM 61.0 °F 48.9 °F 64% 29.88 in - Calm Calm - N/A   Unknown
9:52 AM 68.0 °F 51.1 °F 55% 29.87 in - SSE 3.5 mph - N/A   Unknown
10:52 AM 72.0 °F 50.0 °F 46% 29.86 in - SSW 8.1 mph - N/A   Unknown
11:52 AM 73.9 °F 51.1 °F 45% 29.85 in - SW 15.0 mph - N/A   Unknown
12:52 PM 75.9 °F 48.0 °F 37% 29.84 in - West 8.1 mph - N/A   Unknown
1:52 PM 78.1 °F 52.0 °F 40% 29.83 in - West 12.7 mph 25.3 mph N/A   Unknown
2:52 PM 75.9 °F 53.1 °F 45% 29.83 in - West 17.3 mph 25.3 mph N/A   Unknown
3:52 PM 75.0 °F 55.0 °F 50% 29.83 in - WSW 15.0 mph 21.9 mph N/A   Unknown
4:52 PM 71.1 °F 55.0 °F 57% 29.84 in - WSW 10.4 mph 18.4 mph N/A   Unknown
5:52 PM 66.9 °F 55.0 °F 66% 29.86 in - SW 15.0 mph - N/A   Unknown
6:52 PM 61.0 °F 54.0 °F 78% 29.88 in - SW 11.5 mph - N/A   Unknown
7:52 PM 57.0 °F 53.1 °F 87% 29.90 in - SSW 9.2 mph - N/A   Unknown
8:52 PM 57.0 °F 53.1 °F 87% 29.91 in - Calm Calm - N/A   Unknown
9:52 PM 55.0 °F 52.0 °F 89% 29.92 in - Calm Calm - N/A   Unknown
10:52 PM 51.1 °F 48.9 °F 92% 29.92 in - NE 3.5 mph - N/A   Unknown
11:52 PM 50.0 °F 48.0 °F 93% 29.92 in - NNE 3.5 mph - N/A   Unknown